CAPE
1008 1366 1623 1817 1754 1616 1618 1800 1602 1440 1584 1634 1539 1380 1210 1271 1283 1261 1224 1115 894 843 259 67 290 48 37 22 26 51 61 74 61 49 47 23 20 18 43 41 59 12 30
1159 1653 1614 1811 1814 1681 1669 1918 1819 1782 1799 1767 1533 1375 1434 1410 1378 1371 1244 1027 795 356 79 21 41 40 30 23 48 44 51 70 60 54 75 44 41 32 31 21 39 3 9
1629 1918 1793 1652 1806 1775 1771 2020 2002 2005 1987 1829 1591 1595 1607 1537 1429 1225 968 822 626 378 18 21 27 42 28 32 29 25 15 15 27 36 74 32 32 40 25 13 14 10 16
1695 1688 1798 1577 1681 1671 1733 1755 1977 2117 2004 1805 1754 1712 1595 1447 1246 1119 858 654 555 403 26 20 16 30 22 18 16 4 2 0 0 12 30 20 27 39 29 27 20 28 25
1336 1572 1431 1322 1327 1399 1243 946 1324 1579 895 1568 1802 1737 1488 1338 1305 1120 748 587 481 327 22 26 22 11 10 18 8 5 0 0 2 9 16 14 13 22 21 21 21 17 17
730 1402 1144 1077 1156 1280 1083 982 727 591 815 1047 1602 1606 1418 1336 1276 1009 680 487 502 437 374 25 13 8 10 9 7 1 0 0 2 5 12 12 15 23 26 20 18 18 18
743 1431 994 737 919 730 631 780 630 464 569 683 1314 1397 1257 1262 1143 815 625 585 481 446 329 67 6 2 5 6 2 0 0 0 0 2 7 14 25 21 23 22 12 17 16
571 1191 1027 350 408 460 846 484 318 560 494 781 869 1077 1081 951 851 684 518 287 182 286 245 22 2 1 2 2 0 0 0 0 0 2 5 15 24 23 22 21 16 16 12
727 767 581 527 517 693 466 417 169 269 412 361 695 718 608 530 501 502 228 86 141 255 110 6 0 2 4 1 0 0 0 0 3 5 5 14 20 18 21 17 13 12 12
457 409 532 441 300 154 255 261 340 242 125 239 389 289 227 260 362 141 76 118 210 187 73 2 0 3 3 0 0 0 0 0 1 2 4 17 23 20 17 13 13 9 8
331 348 383 362 357 106 141 118 237 340 204 232 325 194 110 183 118 67 21 151 252 127 21 0 0 0 0 0 0 0 0 0 0 3 4 31 21 18 15 11 9 6 4
169 141 262 344 269 318 230 112 370 102 134 107 175 33 6 25 32 45 30 106 177 77 33 0 0 0 0 0 0 0 0 0 0 2 7 27 17 13 9 7 7 6 5
27 95 121 292 83 92 82 45 143 187 84 75 29 15 12 65 37 7 3 7 64 105 17 0 0 0 0 0 0 0 0 0 0 0 5 21 15 12 5 3 4 2 0
5 39 184 76 111 127 70 41 40 107 46 49 5 19 10 67 17 8 0 0 0 21 80 1 0 0 0 0 0 0 0 0 0 0 5 12 15 7 7 2 0 0 0
1 10 27 76 57 36 31 7 15 31 36 21 1 22 16 4 0 0 0 0 3 6 1 0 0 0 0 0 0 0 0 0 0 0 1 9 13 10 5 1 0 0 0
2 9 2 23 78 31 2 6 23 18 21 5 16 43 11 0 0 0 0 8 9 12 8 0 0 0 0 0 0 0 0 0 0 0 1 0 7 14 8 0 0 0 0
8 5 11 6 29 0 8 16 8 5 3 8 50 40 29 0 0 0 2 26 2 1 0 0 0 0 0 0 0 0 0 0 0 0 0 2 3 7 12 8 2 0 0
3 9 10 17 6 7 0 3 4 13 34 33 65 39 22 3 21 33 34 17 6 5 0 0 0 0 0 0 0 0 0 0 0 0 0 0 1 4 6 16 11 0 0
1 13 6 27 16 7 1 5 10 8 9 21 57 39 23 30 47 40 25 15 14 3 3 4 0 0 0 0 0 0 0 0 0 0 0 0 0 0 1 0 1 0 0
2 7 16 18 10 7 0 4 5 5 18 86 70 31 18 41 38 17 4 6 3 3 25 30 26 13 8 1 3 0 0 0 0 0 0 0 0 0 0 0 0 0 0
5 1 17 17 8 1 1 1 0 6 0 93 63 29 36 22 11 13 0 0 2 7 32 18 37 38 25 20 24 12 0 0 0 0 0 1 1 4 1 4 8 1 3
4 12 0 1 5 1 6 7 3 28 44 52 42 43 37 29 3 0 0 2 0 4 0 21 11 7 16 24 21 19 4 0 7 3 0 3 11 8 13 5 2 4 3
5 4 0 0 3 3 0 5 3 14 21 8 0 0 60 26 2 0 1 1 2 0 1 2 0 0 9 6 6 14 12 13 7 0 0 0 0 0 7 2 0 2 5
0 5 0 5 4 11 1 8 0 0 0 0 0 0 31 29 2 0 13 9 18 4 0 1 8 1 0 1 3 6 3 12 19 9 12 2 13 3 0 0 4 6 2
0 3 0 0 0 0 7 3 0 0 2 14 2 4 68 47 31 8 19 21 27 5 17 24 13 19 2 0 1 0 0 3 12 31 4 16 23 7 0 0 2 1 6
0 2 3 0 0 0 0 0 0 6 10 4 2 62 78 64 42 53 26 7 13 14 26 46 43 39 28 10 10 5 5 24 14 9 6 6 12 3 0 0 0 6 1
CIN
-62 -17 -0 -0 -0 -2 -10 -14 -17 -34 -22 -2 -2 -11 -45 -19 -1 -1 -0 -0 -0 -0 -2 -15 -2 -15 -0 -0 -0 -0 -1 -87 -45 -0 -0 -0 -0 -0 -0 -0 -0 -0 -0
-58 -5 -2 -0 -0 -1 -11 -11 -9 -8 -0 -5 -16 -9 -0 -29 -0 -0 -0 -0 -1 -0 -1 -0 -0 -55 -1 -0 -0 -0 -3 -1 -3 -3 -0 -0 -0 -0 -0 -0 -0 -0 -0
-11 -0 -6 -5 -0 -0 -3 -3 -0 -0 -0 -8 -8 -1 -0 -0 -0 -0 -0 -0 -0 -0 -0 -0 -0 -0 -0 -0 -0 -2 -10 -8 -6 -2 -0 -0 -0 -0 -0 -0 -0 -0 -0
-23 -15 -0 -2 -5 -1 -3 -8 -0 -0 -0 -0 -4 -0 -0 -1 -0 -0 -2 -0 -0 -0 -0 -0 -0 -0 -0 -0 -0 -1 -10 -2 -0 -6 -0 -0 -0 -0 -0 -0 -0 -0 -0
-11 -9 -20 -49 -45 -45 -82 -132 -85 -6 -3 -0 -0 -0 -1 -0 -0 -0 -3 -0 -0 -0 -0 -0 -0 -0 -0 -0 -0 -0 -0 -0 -15 -0 -0 -0 -0 -0 -0 -0 -0 -0 -0
-70 -0 -21 -67 -68 -44 -82 -136 -107 -96 -11 -1 -0 -0 -0 -0 -0 -0 -0 -0 -0 -0 -0 -0 -0 -0 -0 -0 -0 -0 -0 -0 -1 -0 -0 -0 -0 -0 -0 -0 -0 -0 -0
-82 -0 -1 -65 -127 -121 -123 -89 -54 -146 -13 -2 -1 -0 -0 -0 -0 -0 -1 -1 -7 -1 -0 -5 -0 -0 -0 -0 -0 -0 -0 -0 -0 -0 -0 -0 -0 -0 -0 -0 -0 -0 -0
-116 -0 -0 -68 -174 -146 -51 -116 -156 -39 -53 -24 -4 -1 -0 -0 -0 -1 -2 -2 -10 -1 -2 -6 -0 -0 -0 -0 -0 -0 -0 -0 -0 -0 -0 -0 -0 -0 -0 -0 -0 -0 -0
-69 -26 -10 -11 -70 -77 -88 -75 -104 -48 -18 -1 -1 -2 -2 -2 -2 -1 -24 -28 -13 -0 -5 -0 -0 -0 -0 -0 -0 -0 -0 -0 -0 -0 -0 -0 -0 -0 -0 -0 -0 -0 -0
-90 -80 -26 -25 -30 -69 -82 -82 -46 -46 -24 -10 -2 -6 -3 -5 -2 -39 -120 -22 -3 -1 -12 -0 -0 -0 -0 -0 -0 -0 -0 -0 -0 -0 -0 -0 -0 -0 -0 -0 -0 -0 -0
-93 -61 -30 -16 -0 -17 -19 -39 -26 -27 -27 -7 -4 -4 -6 -1 -2 -96 -132 -10 -2 -17 -23 -0 -0 -0 -0 -0 -0 -0 -0 -0 -0 -0 -0 -0 -0 -0 -0 -0 -0 -0 -0
-114 -90 -37 -5 -6 -0 -0 -29 -9 -38 -21 -12 -1 -2 -0 -27 -55 -73 -136 -37 -13 -43 -65 -0 -0 -0 -0 -0 -0 -0 -0 -0 -0 -0 -0 -1 -0 -0 -0 -0 -0 -0 -0
-141 -80 -38 -5 -37 -32 -2 -38 -29 -23 -11 -0 -0 -0 -0 -27 -60 -140 -192 -127 -48 -14 -30 -0 -0 -0 -0 -0 -0 -0 -0 -0 -0 -0 -1 -0 -0 -0 -0 -0 -0 -0 -0
-11 -71 -0 -19 -9 -1 -4 -1 -20 -2 -2 -0 -0 -0 -6 -79 -164 -207 -0 -0 -0 -127 -54 -47 -0 -0 -0 -0 -0 -0 -0 -0 -0 -0 -0 -2 -0 -0 -0 -0 -0 -0 -0
-3 -1 -76 -7 -6 -26 -6 -10 -5 -1 -0 -0 -0 -0 -107 -199 -92 -0 -0 -11 -23 -55 -130 -0 -0 -0 -0 -0 -0 -0 -0 -0 -0 -0 -0 -6 -2 -0 -0 -0 -0 -0 -0
-0 -9 -0 -35 -4 -13 -1 -5 -0 -0 -0 -0 -0 -73 -130 -0 -0 -0 -0 -6 -25 -9 -51 -0 -0 -0 -0 -0 -0 -0 -0 -0 -0 -0 -0 -0 -6 -1 -0 -0 -0 -0 -0
-0 -13 -0 -4 -10 -0 -2 -6 -0 -0 -0 -2 -48 -134 -158 -0 -0 -0 -0 -4 -4 -28 -1 -0 -0 -0 -0 -0 -0 -0 -0 -0 -0 -0 -0 -0 -0 -11 -3 -0 -0 -0 -0
-0 -3 -0 -0 -12 -1 -0 -0 -1 -0 -1 -32 -61 -147 -199 -134 -6 -2 -3 -9 -0 -17 -0 -0 -0 -0 -0 -0 -0 -0 -0 -0 -0 -0 -0 -0 -0 -0 -6 -3 -0 -0 -0
-0 -0 -6 -0 -1 -4 -3 -0 -1 -0 -0 -36 -36 -119 -148 -0 -1 -5 -7 -10 -11 -13 -20 -30 -9 -0 -0 -0 -0 -0 -0 -0 -0 -0 -0 -0 -0 -0 -0 -0 -4 -0 -0
-0 -0 -0 -0 -3 -2 -8 -0 -0 -0 -3 -19 -85 -89 -0 -11 -12 -29 -30 -36 -12 -19 -3 -4 -4 -7 -1 -1 -2 -0 -0 -0 -0 -0 -0 -0 -0 -0 -0 -0 -0 -0 -0
-0 -0 -0 -1 -2 -0 -0 -0 -0 -0 -0 -14 -78 -138 -152 -23 -26 -9 -0 -0 -5 -9 -0 -4 -7 -15 -15 -10 -8 -14 -20 -14 -0 -2 -0 -1 -2 -0 -3 -3 -0 -1 -2
-0 -0 -0 -1 -3 -0 -0 -0 -0 -0 -8 -3 -61 -42 -117 -147 -94 -0 -0 -14 -10 -40 -0 -26 -32 -11 -11 -14 -19 -17 -29 -2 -20 -10 -3 -4 -0 -1 -1 -2 -0 -0 -0
-0 -0 -0 -0 -2 -0 -0 -0 -0 -0 -1 -0 -0 -0 -87 -59 -4 -0 -99 -151 -113 -99 -136 -75 -0 -3 -38 -38 -29 -15 -19 -32 -26 -0 -0 -0 -0 -0 -1 -0 -0 -0 -0
-0 -0 -0 -148 -101 -0 -0 -0 -0 -0 -0 -0 -0 -0 -31 -111 -23 -0 -159 -183 -186 -204 -0 -168 -73 -70 -37 -45 -45 -43 -34 -21 -5 -3 -8 -3 -2 -5 -0 -0 -1 -3 -0
-0 -0 -0 -0 -83 -0 -1 -6 -0 -0 -0 -0 -0 -1 -19 -43 -81 -142 -141 -157 -147 -177 -68 -78 -74 -65 -45 -3 -65 -37 -0 -14 -6 -1 -12 -10 -1 -5 -0 -0 -6 -0 -0
-0 -0 -0 -0 -0 -0 -0 -0 -0 -0 -0 -1 -0 -3 -7 -23 -55 -70 -108 -142 -142 -149 -77 -61 -56 -52 -52 -38 -36 -3 -2 -4 -12 -5 -1 -15 -0 -1 -0 -0 -0 -0 -0
Wind_Speed
31 31 38 46 49 47 45 38 42 49 47 43 44 42 32 42 34 23 19 19 21 25 22 nan 22 nan nan nan nan nan nan nan nan nan nan nan nan nan nan nan nan nan nan
27 30 35 41 46 44 47 44 35 34 42 44 43 44 35 45 27 23 23 22 25 26 nan nan nan nan nan nan nan nan nan nan nan nan nan nan nan nan nan nan nan nan nan
29 34 37 38 38 45 46 50 51 44 45 44 43 43 40 40 36 28 35 26 26 26 nan nan nan nan nan nan nan nan nan nan nan nan nan nan nan nan nan nan nan nan nan
29 38 42 41 40 40 41 50 50 52 53 40 37 39 40 36 30 23 41 28 26 22 nan nan nan nan nan nan nan nan nan nan nan nan nan nan nan nan nan nan nan nan nan
26 33 40 43 43 42 49 49 45 53 35 27 31 39 38 42 29 26 35 30 26 20 nan nan nan nan nan nan nan nan nan nan nan nan nan nan nan nan nan nan nan nan nan
24 28 36 37 42 41 41 44 38 49 47 38 36 34 35 34 38 34 31 27 24 23 21 nan nan nan nan nan nan nan nan nan nan nan nan nan nan nan nan nan nan nan nan
26 23 29 35 34 33 28 32 46 51 30 19 30 27 34 33 32 42 36 24 25 24 21 nan nan nan nan nan nan nan nan nan nan nan nan nan nan nan nan nan nan nan nan
22 28 29 31 28 22 22 26 38 37 30 31 28 27 30 31 35 39 33 31 29 28 29 nan nan nan nan nan nan nan nan nan nan nan nan nan nan nan nan nan nan nan nan
20 25 30 20 17 20 15 11 23 28 21 18 23 34 29 31 32 39 37 nan 32 30 30 nan nan nan nan nan nan nan nan nan nan nan nan nan nan nan nan nan nan nan nan
22 23 24 17 11 25 12 12 10 15 15 12 25 36 28 30 31 42 nan 32 27 30 nan nan nan nan nan nan nan nan nan nan nan nan nan nan nan nan nan nan nan nan nan
23 22 20 22 12 12 18 7 9 15 12 17 25 41 38 29 30 nan nan 38 37 34 nan nan nan nan nan nan nan nan nan nan nan nan nan nan nan nan nan nan nan nan nan
21 23 19 19 17 7 8 12 9 8 7 12 16 nan nan nan nan nan nan 36 38 nan nan nan nan nan nan nan nan nan nan nan nan nan nan nan nan nan nan nan nan nan nan
nan nan 24 17 nan nan nan nan 15 13 nan nan nan nan nan nan nan nan nan nan nan 36 nan nan nan nan nan nan nan nan nan nan nan nan nan nan nan nan nan nan nan nan nan
nan nan 24 nan 18 12 nan nan nan 18 nan nan nan nan nan nan nan nan nan nan nan nan nan nan nan nan nan nan nan nan nan nan nan nan nan nan nan nan nan nan nan nan nan
nan nan nan nan nan nan nan nan nan nan nan nan nan nan nan nan nan nan nan nan nan nan nan nan nan nan nan nan nan nan nan nan nan nan nan nan nan nan nan nan nan nan nan
nan nan nan nan nan nan nan nan nan nan nan nan nan nan nan nan nan nan nan nan nan nan nan nan nan nan nan nan nan nan nan nan nan nan nan nan nan nan nan nan nan nan nan
nan nan nan nan nan nan nan nan nan nan nan nan nan nan nan nan nan nan nan nan nan nan nan nan nan nan nan nan nan nan nan nan nan nan nan nan nan nan nan nan nan nan nan
nan nan nan nan nan nan nan nan nan nan nan nan nan nan nan nan nan nan nan nan nan nan nan nan nan nan nan nan nan nan nan nan nan nan nan nan nan nan nan nan nan nan nan
nan nan nan nan nan nan nan nan nan nan nan nan nan nan nan nan nan nan nan nan nan nan nan nan nan nan nan nan nan nan nan nan nan nan nan nan nan nan nan nan nan nan nan
nan nan nan nan nan nan nan nan nan nan nan nan nan nan nan nan nan nan nan nan nan nan nan nan nan nan nan nan nan nan nan nan nan nan nan nan nan nan nan nan nan nan nan
nan nan nan nan nan nan nan nan nan nan nan nan nan nan nan nan nan nan nan nan nan nan nan nan nan nan nan nan nan nan nan nan nan nan nan nan nan nan nan nan nan nan nan
nan nan nan nan nan nan nan nan nan nan nan nan nan nan nan nan nan nan nan nan nan nan nan nan nan nan nan nan nan nan nan nan nan nan nan nan nan nan nan nan nan nan nan
nan nan nan nan nan nan nan nan nan nan nan nan nan nan nan nan nan nan nan nan nan nan nan nan nan nan nan nan nan nan nan nan nan nan nan nan nan nan nan nan nan nan nan
nan nan nan nan nan nan nan nan nan nan nan nan nan nan nan nan nan nan nan nan nan nan nan nan nan nan nan nan nan nan nan nan nan nan nan nan nan nan nan nan nan nan nan
nan nan nan nan nan nan nan nan nan nan nan nan nan nan nan nan nan nan nan nan nan nan nan nan nan nan nan nan nan nan nan nan nan nan nan nan nan nan nan nan nan nan nan
nan nan nan nan nan nan nan nan nan nan nan nan nan nan nan nan nan nan nan nan nan nan nan nan nan nan nan nan nan nan nan nan nan nan nan nan nan nan nan nan nan nan nan
Wind_Direction
285 271 264 264 263 263 263 267 268 273 278 285 283 294 293 284 250 263 260 262 270 269 276 nan 285 nan nan nan nan nan nan nan nan nan nan nan nan nan nan nan nan nan nan
268 271 267 265 262 266 264 262 267 286 287 285 292 290 280 281 278 280 270 263 266 274 nan nan nan nan nan nan nan nan nan nan nan nan nan nan nan nan nan nan nan nan nan
266 271 270 266 271 269 273 272 275 283 294 289 276 274 273 263 274 273 271 269 269 273 nan nan nan nan nan nan nan nan nan nan nan nan nan nan nan nan nan nan nan nan nan
266 272 277 273 277 284 284 276 281 280 279 269 275 267 271 261 266 262 269 266 265 269 nan nan nan nan nan nan nan nan nan nan nan nan nan nan nan nan nan nan nan nan nan
279 277 283 277 269 277 273 277 278 278 290 255 260 264 269 249 250 254 255 259 266 264 nan nan nan nan nan nan nan nan nan nan nan nan nan nan nan nan nan nan nan nan nan
292 291 283 279 272 270 277 275 274 273 276 262 254 258 273 257 265 264 252 254 262 266 275 nan nan nan nan nan nan nan nan nan nan nan nan nan nan nan nan nan nan nan nan
298 297 297 285 286 269 277 266 276 286 282 218 259 250 260 265 259 260 259 250 246 253 260 nan nan nan nan nan nan nan nan nan nan nan nan nan nan nan nan nan nan nan nan
314 313 309 304 281 275 269 269 268 288 303 281 251 283 267 281 261 255 248 241 245 258 261 nan nan nan nan nan nan nan nan nan nan nan nan nan nan nan nan nan nan nan nan
307 320 313 311 266 237 254 272 287 301 306 273 290 295 277 277 248 247 239 nan 250 255 267 nan nan nan nan nan nan nan nan nan nan nan nan nan nan nan nan nan nan nan nan
293 315 314 293 278 240 233 226 287 315 334 329 300 293 280 270 259 255 nan 245 252 255 nan nan nan nan nan nan nan nan nan nan nan nan nan nan nan nan nan nan nan nan nan
290 292 306 309 291 237 211 224 222 327 338 318 287 269 267 254 265 nan nan 251 262 259 nan nan nan nan nan nan nan nan nan nan nan nan nan nan nan nan nan nan nan nan nan
289 287 289 307 304 257 228 226 222 270 254 243 251 nan nan nan nan nan nan 243 249 nan nan nan nan nan nan nan nan nan nan nan nan nan nan nan nan nan nan nan nan nan nan
nan nan 275 286 nan nan nan nan 231 250 nan nan nan nan nan nan nan nan nan nan nan 256 nan nan nan nan nan nan nan nan nan nan nan nan nan nan nan nan nan nan nan nan nan
nan nan 270 nan 267 258 nan nan nan 260 nan nan nan nan nan nan nan nan nan nan nan nan nan nan nan nan nan nan nan nan nan nan nan nan nan nan nan nan nan nan nan nan nan
nan nan nan nan nan nan nan nan nan nan nan nan nan nan nan nan nan nan nan nan nan nan nan nan nan nan nan nan nan nan nan nan nan nan nan nan nan nan nan nan nan nan nan
nan nan nan nan nan nan nan nan nan nan nan nan nan nan nan nan nan nan nan nan nan nan nan nan nan nan nan nan nan nan nan nan nan nan nan nan nan nan nan nan nan nan nan
nan nan nan nan nan nan nan nan nan nan nan nan nan nan nan nan nan nan nan nan nan nan nan nan nan nan nan nan nan nan nan nan nan nan nan nan nan nan nan nan nan nan nan
nan nan nan nan nan nan nan nan nan nan nan nan nan nan nan nan nan nan nan nan nan nan nan nan nan nan nan nan nan nan nan nan nan nan nan nan nan nan nan nan nan nan nan
nan nan nan nan nan nan nan nan nan nan nan nan nan nan nan nan nan nan nan nan nan nan nan nan nan nan nan nan nan nan nan nan nan nan nan nan nan nan nan nan nan nan nan
nan nan nan nan nan nan nan nan nan nan nan nan nan nan nan nan nan nan nan nan nan nan nan nan nan nan nan nan nan nan nan nan nan nan nan nan nan nan nan nan nan nan nan
nan nan nan nan nan nan nan nan nan nan nan nan nan nan nan nan nan nan nan nan nan nan nan nan nan nan nan nan nan nan nan nan nan nan nan nan nan nan nan nan nan nan nan
nan nan nan nan nan nan nan nan nan nan nan nan nan nan nan nan nan nan nan nan nan nan nan nan nan nan nan nan nan nan nan nan nan nan nan nan nan nan nan nan nan nan nan
nan nan nan nan nan nan nan nan nan nan nan nan nan nan nan nan nan nan nan nan nan nan nan nan nan nan nan nan nan nan nan nan nan nan nan nan nan nan nan nan nan nan nan
nan nan nan nan nan nan nan nan nan nan nan nan nan nan nan nan nan nan nan nan nan nan nan nan nan nan nan nan nan nan nan nan nan nan nan nan nan nan nan nan nan nan nan
nan nan nan nan nan nan nan nan nan nan nan nan nan nan nan nan nan nan nan nan nan nan nan nan nan nan nan nan nan nan nan nan nan nan nan nan nan nan nan nan nan nan nan
nan nan nan nan nan nan nan nan nan nan nan nan nan nan nan nan nan nan nan nan nan nan nan nan nan nan nan nan nan nan nan nan nan nan nan nan nan nan nan nan nan nan nan